AirNav   Bose Proflight and A20 aviation headeets
 
 582 users online  

K23 Cooperstown-Westville Airport
Cooperstown, New York, USA

GOING TO COOPERSTOWN?


FAA INFORMATION EFFECTIVE 31 JANUARY 2019

Location

FAA Identifier: K23
Lat/Long: 42-37-45.2730N / 074-53-27.5560W
42-37.754550N / 074-53.459267W
42.6292425 / -74.8909878
(estimated)
Elevation: 1260 ft. / 384 m (estimated)
Variation: 13W (1985)
From city: 4 miles SE of COOPERSTOWN, NY
Time zone: UTC -5 (UTC -4 during Daylight Saving Time)
Zip code: 13326

Airport Operations

Airport use: Open to the public
Activation date: 05/1956
Control tower: no
ARTCC: BOSTON CENTER
FSS: BUFFALO FLIGHT SERVICE STATION
NOTAMs facility: BUF (NOTAM-D service available)
Attendance: UNATNDD
CALL MGR FOR SERVICES.
Wind indicator: yes
Segmented circle: yes
Lights: ACTVT MIRL RY 02/20 - CTAF.

Airport Communications

CTAF/UNICOM: 122.8
WX AWOS-3 at N66 (10 nm SW): 119.575 (607-643-0253)
  • CD THRU FLT SVCS 1-888-766-8267.

Nearby radio navigation aids

VOR radial/distance  VOR name  Freq  Var
RKAr069/18.2ROCKDALE VOR/DME112.6011W
UCAr165/26.7UTICA VORTAC111.2012W
DNYr017/27.2DELANCEY VOR/DME112.1011W
HNKr040/38.9HANCOCK VOR/DME116.8011W

 
NDB name  Hdg/Dist  Freq  Var  ID
KRING071/5.027913WOZ --- --..
JOHNSTOWN242/33.252314WJJH .--- .--- ....

Airport Services

Fuel available: 100LL
SELF SERVICE FUELING AVBL.
Parking: hangars and tiedowns
Airframe service: MAJOR
Powerplant service: MAJOR
Bottled oxygen: NONE
Bulk oxygen: NONE

Runway Information

Runway 2/20

Dimensions: 2337 x 125 ft. / 712 x 38 m
RY EDGE DENOTED BY WHITE TIRES AROUND EDGE LIGHTS.
Surface: turf, in fair condition
Runway edge lights: non-standard
NSTD MIRL; SPACING; 2 THLD LGTS EACH SIDE.
RUNWAY 2  RUNWAY 20
Traffic pattern: rightleft
Visual slope indicator: non-standard VASI systemnon-standard VASI system
Obstructions: 11 ft. trees, 4 ft. from runway, 60 ft. right of centerline
RWY 02; +60 FT TREE, 359 FT FROM THRESHOLD, 145 FT LEFT
7 ft. crops, 11 ft. from runway, 123 ft. left of centerline, 1:1 slope to clear
RWY 20; +37 FT POLE, 394 FT FROM THRESHOLD, 163 FT RIGHT

Airport Ownership and Management from official FAA records

Ownership: Privately-owned
Owner: RICK WILLIAMS
866 ST. RT. 166, PO BOX 1285
COOPERSTOWN, NY 13326-8661
Phone (607) 437-8308
Manager: GEORGE CHANDLER
BODEE AVIATION, LLC, PO BOX 52
COOPERSTOWN, NY 13326
Phone 607-287-7032

Airport Operational Statistics

Aircraft based on the field: 30
Single engine airplanes: 23
Multi engine airplanes: 1
Ultralights: 6
    
Aircraft operations: avg 46/week *
50% transient general aviation
50% local general aviation
* for 12-month period ending 23 August 2017

Instrument Procedures

There are no published instrument procedures at K23.

Some nearby airports with instrument procedures:

N66 - Oneonta Municipal Airport (10 nm SW)
KOIC - LT Warren Eaton Airport (28 nm W)
N23 - Sidney Municipal Airport (30 nm SW)
KVGC - Hamilton Municipal Airport (32 nm NW)
NY0 - Fulton County Airport (33 nm NE)
 
Loc | Ops | Rwys | IFR | FBO | Links
Com | Nav | Svcs | Stats | Notes
Area around K23 (Cooperstown-Westville Airport)
 
Road maps at: MapQuest Bing Google
 
Aerial photo
WARNING: Photo may not be current or correct
Aerial photo of K23 (Cooperstown-Westville Airport)
Photo by Michael Kilcher
As seen circa 2007
looking south.

Do you have a better or more recent aerial photo of Cooperstown-Westville Airport that you would like to share? If so, please send us your photo.

 
Sectional chart

 
Airport distance calculator
Flying to Cooperstown-Westville Airport? Find the distance to fly.

From to K23

Sunrise and sunset
Times for 19-Feb-2019
 Local
(UTC-5)
 Zulu
(UTC)
Morning civil twilight06:2311:23
Sunrise06:5211:52
Sunset17:3522:35
Evening civil twilight18:0423:04

Current date and time
Zulu (UTC)  19-Feb-2019 12:20:34
Local (UTC-5)  19-Feb-2019 07:20:34
 
METAR
KNY0 
33nm NE 
191137Z AUTO 26008KT 10SM CLR M16/M19 A3045 RMK AO2
KRME 
42nm NW 
191153Z 00000KT 10SM CLR M21/M22 A3057 RMK AO2 SLP364 70001 I1000 I6000 T12061217 11156 21211 51027
KSCH 
45nm E 
190147Z 31010G18KT 10SM CLR M07/M13 A3025 RMK LAST
KALB 
49nm E 
191151Z 33003KT 10SM FEW260 M13/M17 A3051 RMK AO2 SLP337 4/004 70005 I6001 T11281172 11100 21156 53023
TAF
KRME 
42nm NW 
191124Z 1912/2012 32005KT P6SM SCT040 FM191400 29008KT P6SM SKC FM200200 26005KT P6SM SCT030 FM201000 00000KT P6SM BKN150
KALB 
49nm E 
191133Z 1912/2012 31006KT P6SM SKC FM191300 31010G16KT P6SM SKC FM191600 30012G18KT P6SM SKC FM200000 29006KT P6SM SKC
NOTAMs
Click for the latest NOTAMs
NOTAMs are issued by the DoD/FAA and will open in a separate window not controlled by AirNav.

 

 
 

FBO, Fuel Providers, and Aircraft Ground Support

  
 Business Name 
 
 Contact 
 
 Services / Description 
 
Fuel Prices
 
Comments
  
BoDee Aviation 607-287-7032
[email]
Airport management, Aviation fuel, Aircraft parking (ramp or tiedown), Hangar leasing / sales, Flight training, Aerial tours / aerial sightseeing, Aerial photography, ...

More info about BoDee Aviation
independent
100LL
SS $5.95 
 Updated 09-Jul-2016
 
   write
SS=Self service
Update Fuel Prices
 

Would you like to see your business listed on this page?

 If your business provides an interesting product or service to pilots, flight crews, aircraft, or users of the Cooperstown-Westville Airport, you should consider listing it here.  To start the listing process, click on the button below
 
Add a business
 

Other Pages about Cooperstown-Westville Airport

www.cooperstownwestvilleairport.com
 
Update a link
 
Copyright © AirNav, LLC. All rights reserved. Privacy Policy  Contact